Location: Niedergestelen
(46.3129°N, 7.7822°E)
Time: 06:23:20
(UTC+00:00)

Meteor 1-4 Rocket - Pass Details

Date: 01 December 2020
Orbit: 449 x 500 km, 81.2° (Epoch: 18 January)

Event Time Altitude Azimuth Distance (km) Brightness Sun altitude
Rises 17:30:11 0° 201° (SSW) 2,522 6.7 -17.7°
Reaches altitude 10° 17:32:19 10° 207° (SSW) 1,639 5.8 -18.0°
Maximum altitude 17:35:49 50° 284° (WNW) 609 3.4 -18.6°
Enters shadow 17:38:58 12° 359° (N) 1,501 4.9 -19.2°
